This demonstration page uses our WeatherBlox Daily Observations layout. Learn more.

36.17497, -115.13722

Hourly Observations for April 28, 2015

Temp ( °F °C ) Dew Point ( °F °C ) Humidity (%) Winds ( mph kmh ) Pressure ( in mb ) Visibility ( mi km ) Precip ( " mm )
12:53 am 00:53 Clear 67 19.4 25 -3.9 20 20 NW 6 9 30.04 1017 10 16.0934 0 0
1:53 am 01:53 Clear 68 20 26 -3.3 21 21 Calm 30.04 1017 10 16.0934 0 0
2:53 am 02:53 Clear 65 18.3 25 -3.9 22 22 WNW 5 7 30.05 1018 10 16.0934 0 0
3:53 am 03:53 Clear 64 17.8 24 -4.4 22 22 N 6 9 30.05 1018 10 16.0934 0 0
4:53 am 04:53 Clear 65 18.3 24 -4.4 21 21 NNW 9 15 30.05 1018 10 16.0934 0 0
5:53 am 05:53 Sunny 63 17.2 24 -4.4 23 23 N 8 13 30.06 1018 10 16.0934 0 0
6:53 am 06:53 Sunny 64 17.8 24 -4.4 22 22 N 9 15 30.09 1019 10 16.0934 0 0
7:53 am 07:53 Sunny 68 20 24 -4.4 19 19 N 8 13 30.1 1019 10 16.0934 0 0
8:53 am 08:53 Sunny 72 22.2 24 -4.4 17 17 N 10 17 30.09 1019 10 16.0934 0 0
9:53 am 09:53 Sunny 75 23.9 24 -4.4 15 15 VRB 3 6 30.09 1019 10 16.0934 0 0
10:53 am 10:53 Sunny 76 24.4 27 -2.8 16 16 Calm 30.09 1019 10 16.0934 0 0
11:53 am 11:53 Sunny 80 26.7 28 -2.2 15 15 Calm 30.06 1018 10 16.0934 0 0
12:53 pm 12:53 Sunny 81 27.2 29 -1.7 15 15 VRB 7 11 30.04 1017 10 16.0934 0 0
1:53 pm 13:53 Sunny 82 27.8 28 -2.2 14 14 Calm 30.01 1016 10 16.0934 0 0
2:53 pm 14:53 Sunny 84 28.9 28 -2.2 13 13 SSE 6 9 29.97 1015 10 16.0934 0 0
3:53 pm 15:53 Sunny 85 29.4 27 -2.8 12 12 SW 8 13 29.95 1014 10 16.0934 0 0
4:53 pm 16:53 Sunny 85 29.4 26 -3.3 12 12 VRB 3 6 29.93 1014 10 16.0934 0 0
5:53 pm 17:53 Sunny 85 29.4 25 -3.9 11 11 SE 8 13 29.92 1013 10 16.0934 0 0
6:53 pm 18:53 Sunny 85 29.4 23 -5 10 10 ENE 5 7 29.91 1013 10 16.0934 0 0
7:53 pm 19:53 Clear 81 27.2 22 -5.6 11 11 E 5 7 29.92 1013 10 16.0934 0 0
8:53 pm 20:53 Clear 80 26.7 24 -4.4 13 13 Calm 29.93 1014 10 16.0934 0 0
9:53 pm 21:53 Clear 75 23.9 29 -1.7 18 18 NW 5 7 29.95 1014 10 16.0934 0 0
10:53 pm 22:53 Clear 73 22.8 32 0 22 22 WNW 7 11 29.96 1015 10 16.0934 0 0
11:53 pm 23:53 Clear 71 21.7 31 -0.6 23 23 NW 7 11 29.96 1014 10 16.0934 0 0

Powered by AerisWeather